Regional Weather Roundup
Issued by NWS

Home | Current Version | Previous Version | Text Only | Print | Product List | Glossary On
Versions: 1 2 3 4 5 6 7 8 9 10 11 12 13 14 15 16 17 18 19 20 21 22 23 24 25 26 27 28 29 30 31 32 33 34 35 36 37 38 39 40 41 42 43 44 45 46 47 48 49 50
000
ASUS46 KSTO 250115
RWRCA

NORTHERN AND CENTRAL CA REGIONAL WEATHER ROUNDUP
NATIONAL WEATHER SERVICE SACRAMENTO CA
600 PM PDT SUN SEP 24 2017

NOTE: FAIR INDICATES FEW OR NO CLOUDS BELOW 12,000 FEET WITH NO
SIGNIFICANT WEATHER AND/OR OBSTRUCTIONS TO VISIBILITY.

CAZ001-003-250200-
NORTHWEST AREA

CITY           SKY/WX    TMP DP  RH WIND       PRES   REMARKS
CRESCENT CITY  MOSUNNY   58  52  80 N10       30.02S
UKIAH          PTSUNNY   77  33  20 VRB3      29.92R
$$

CAZ006-505>513-250200-
BAY AREA

CITY           SKY/WX    TMP DP  RH WIND       PRES   REMARKS
SANTA ROSA     MOSUNNY   81  35  19 W9        29.87S
SAN RAFAEL     N/A       79  MM  MM MISG
NAPA           PTSUNNY   79  34  19 W14       29.89S
CONCORD        MOSUNNY   83  31  15 NE7       29.89S
OAKLAND CITY   N/A      MM  MM  MM MISG
OAKLAND        MOSUNNY   72  50  45 NW8       29.91R
SAN FRAN CITY  N/A       69  MM  44 MISG
SAN FRAN ARPT  PTSUNNY   73  40  30 W23       29.91S
LIVERMORE      SUNNY     80  31  16 N9        29.90R
HAYWARD        MOSUNNY   74  39  28 W15       29.92R
REDWOOD CITY   N/A       76  MM  21 MISG
MOFFETT ARPT   SUNNY     78  42  27 NW10      29.91S
SAN JOSE ARPT  MOSUNNY   78  43  28 NW10      29.90S
$$
CAZ034-037-514>518-250200-
CENTRAL COAST

CITY           SKY/WX    TMP DP  RH WIND       PRES   REMARKS
WATSONVILLE    SUNNY     70  53  54 SE5       29.90S
SALINAS        SUNNY     70  51  51 W10       29.91R
MONTEREY       SUNNY     71  45  39 W7        29.93R
SAN LUIS OBISP SUNNY     73  35  25 NW20      29.86S
SANTA MARIA    SUNNY     72  36  26 NW16      29.87S
$$
CAZ015-016-250200-
NORTHERN SACRAMENTO VALLEY

CITY           SKY/WX    TMP DP  RH WIND       PRES   REMARKS
REDDING        PTSUNNY   83  29  14 NW6       29.90F
RED BLUFF      PTSUNNY   83  30  14 N9        29.91S
OROVILLE       PTSUNNY   80  34  19 NW8G18    29.90S
$$
CAZ016>018-250200-
SOUTHERN SACRAMENTO VALLEY

CITY           SKY/WX    TMP DP  RH WIND       PRES   REMARKS
AUBURN         MOSUNNY   75 -31   1 W8        29.94S
LINCOLN        FAIR      81  28  15 NW7       29.88S
MARYSVILLE     MOSUNNY   81  34  18 NW10      29.89S
SAC INTL ARPT  MOSUNNY   80  33  18 N7        29.88S
MATHER AIRPORT MOSUNNY   81  30  16 S12       29.89S
DOWNTOWN SAC   N/A       80  MM  MM MISG
SAC EXEC ARPT  SUNNY     81  30  15 N8        29.89S
VACAVILLE      MOSUNNY   82  30  15 N9        29.90F
TRAVIS AFB     MOSUNNY   81  31  16 N13       29.87F
$$
CAZ019>021-250200-
SAN JOAQUIN VALLEY

CITY           SKY/WX    TMP DP  RH WIND       PRES   REMARKS
STOCKTON       SUNNY     82  32  16 N6        29.89S
MODESTO        SUNNY     81  30  15 N7        29.89S
MERCED         MOSUNNY   79  30  16 NW10      29.88S
LEMOORE        MOCLDY    80  35  19 N9        29.89S
FRESNO         MOCLDY    78  33  19 W8        29.89S
HANFORD        PTCLDY    78  37  22 N3        29.89S
PORTERVILLE      N/A     80  37  21 NW8       29.89S
BAKERSFIELD    CLEAR     80  36  20 NW10      29.87S
$$
CAZ011-012-071-250200-
NORTHERN MOUNTAINS

CITY           SKY/WX    TMP DP  RH WIND       PRES   REMARKS
YREKA          PTSUNNY   72  31  22 N3        30.04S
MOUNT SHASTA   PTSUNNY   64  34  32 VRB5      30.06S
ALTURAS        CLEAR     60  29  30 E6        30.10S
$$
CAZ011-012-071-250200-
SIERRA NEVADA MTNS

CITY           SKY/WX    TMP DP  RH WIND       PRES   REMARKS
BLUE CANYON    PTCLDY    60  31  33 VRB6      30.08S
TAHOE VLY ARPT MOCLDY    51  30  44 CALM      30.11R
MAMMOTH LAKES  FAIR      56  16  20 NW7       30.11S
$$



USA.gov is the U.S. government's official web portal to all federal, state and local government web resources and services.